When you browse on this site, cookies collect data to enhance your experience and personalize the content and advertising you see.
Visit our Privacy Policy to learn more. By continuing to use the site, you agree to this use of cookies and data.
  • In United Kingdom
  • List of Countries
  • For 7 days
  • Water Temperature
  • Weather Map
  • Weather Widgets
  • user-avatar
    Login

    Hourly Weather Peshchera

    Today, 22 August, Thursday

    Time Temperature Precipitation Wind Pressure Humidity
    00:00 +22°C° 0 mm 1 mps 726 mmHg 78%
    01:00 +22°C° 0 mm 1 mps 726 mmHg 82%
    02:00 +19°C° 0 mm 1 mps 727 mmHg 99%
    03:00 +20°C° 0 mm 1 mps 727 mmHg 90%
    04:00 +20°C° 0 mm 1 mps 727 mmHg 90%
    05:00 +20°C° 0 mm 1 mps 727 mmHg 86%
    06:00 +19°C° 0 mm 1 mps 727 mmHg 87%
    07:00 +19°C° 0 mm 1 mps 727 mmHg 88%
    08:00 +21°C° 0 mm 1 mps 728 mmHg 85%
    09:00 +23°C° 0 mm 1 mps 728 mmHg 80%
    10:00 +23°C° 0 mm 0 mps 728 mmHg 75%
    11:00 +24°C° 0 mm 0 mps 728 mmHg 70%
    12:00 +26°C° 0 mm 0 mps 728 mmHg 64%
    13:00 +29°C° 0 mm 1 mps 728 mmHg 58%
    14:00 +30°C° 0 mm 1 mps 728 mmHg 57%
    15:00 +30°C° 0 mm 2 mps 728 mmHg 58%
    16:00 +28°C° 0.3 mm 4 mps 728 mmHg 62%
    17:00 +26°C° 2.2 mm 3 mps 728 mmHg 75%
    18:00 +26°C° 0 mm 5 mps 728 mmHg 74%
    19:00 +25°C° 0 mm 4 mps 727 mmHg 77%
    20:00 +22°C° 0 mm 3 mps 728 mmHg 81%
    21:00 +21°C° 0 mm 2 mps 728 mmHg 82%
    22:00 +21°C° 0 mm 2 mps 728 mmHg 82%
    23:00 +20°C° 0 mm 2 mps 728 mmHg 85%

    Tomorrow, 23 August, Friday

    Time Temperature Precipitation Wind Pressure Humidity
    00:00 +19°C° 0 mm 2 mps 728 mmHg 86%
    01:00 +19°C° 0 mm 2 mps 728 mmHg 88%
    02:00 +20°C° 0 mm 1 mps 728 mmHg 88%
    03:00 +20°C° 0 mm 1 mps 728 mmHg 88%
    04:00 +19°C° 0 mm 1 mps 728 mmHg 89%
    05:00 +19°C° 0 mm 1 mps 728 mmHg 89%
    06:00 +19°C° 0 mm 1 mps 728 mmHg 89%
    07:00 +20°C° 0 mm 1 mps 728 mmHg 89%
    08:00 +21°C° 0 mm 1 mps 728 mmHg 86%
    09:00 +21°C° 0 mm 0 mps 729 mmHg 81%
    10:00 +23°C° 0 mm 0 mps 729 mmHg 74%
    11:00 +25°C° 0 mm 0 mps 729 mmHg 66%
    12:00 +26°C° 0 mm 0 mps 729 mmHg 64%
    13:00 +28°C° 0 mm 1 mps 729 mmHg 64%
    14:00 +29°C° 0 mm 2 mps 728 mmHg 63%
    15:00 +29°C° 0 mm 4 mps 728 mmHg 61%
    16:00 +29°C° 0 mm 4 mps 728 mmHg 63%
    17:00 +28°C° 0 mm 5 mps 728 mmHg 65%
    18:00 +27°C° 0 mm 6 mps 727 mmHg 67%
    19:00 +25°C° 0 mm 5 mps 727 mmHg 72%
    20:00 +22°C° 0 mm 5 mps 728 mmHg 76%
    21:00 +22°C° 0 mm 4 mps 727 mmHg 75%
    22:00 +21°C° 0 mm 3 mps 728 mmHg 77%
    23:00 +21°C° 0 mm 2 mps 728 mmHg 80%

    Day after tomorrow, 24 August, Saturday

    Time Temperature Precipitation Wind Pressure Humidity
    00:00 +20°C° 0 mm 3 mps 728 mmHg 81%
    01:00 +20°C° 0 mm 2 mps 728 mmHg 82%
    02:00 +19°C° 0 mm 2 mps 727 mmHg 88%
    03:00 +19°C° 0 mm 1 mps 727 mmHg 87%
    04:00 +19°C° 0 mm 1 mps 727 mmHg 84%
    05:00 +19°C° 0 mm 1 mps 727 mmHg 81%
    06:00 +19°C° 0 mm 1 mps 727 mmHg 77%
    07:00 +19°C° 0 mm 1 mps 728 mmHg 76%
    08:00 +21°C° 0 mm 1 mps 728 mmHg 72%
    09:00 +24°C° 0 mm 1 mps 728 mmHg 61%
    10:00 +26°C° 0 mm 1 mps 729 mmHg 54%
    11:00 +27°C° 0 mm 1 mps 729 mmHg 50%
    12:00 +28°C° 0 mm 1 mps 729 mmHg 49%
    13:00 +29°C° 0 mm 2 mps 728 mmHg 50%
    14:00 +29°C° 0 mm 2 mps 728 mmHg 52%
    15:00 +29°C° 0 mm 2 mps 727 mmHg 56%
    16:00 +29°C° 0 mm 2 mps 727 mmHg 56%
    17:00 +29°C° 0 mm 3 mps 727 mmHg 58%
    18:00 +28°C° 0 mm 5 mps 726 mmHg 63%
    19:00 +27°C° 0 mm 4 mps 727 mmHg 67%
    20:00 +25°C° 0 mm 4 mps 727 mmHg 73%
    21:00 +23°C° 0 mm 4 mps 727 mmHg 77%
    22:00 +22°C° 0 mm 3 mps 727 mmHg 78%
    23:00 +21°C° 0 mm 3 mps 727 mmHg 77%

    25 August, Sunday

    Time Temperature Precipitation Wind Pressure Humidity
    00:00 +21°C° 0 mm 2 mps 727 mmHg 76%
    01:00 +20°C° 0 mm 3 mps 727 mmHg 73%
    02:00 +20°C° 0 mm 2 mps 727 mmHg 72%
    03:00 +20°C° 0 mm 2 mps 726 mmHg 71%
    04:00 +20°C° 0 mm 2 mps 726 mmHg 71%
    05:00 +20°C° 0 mm 2 mps 726 mmHg 70%
    06:00 +20°C° 0 mm 2 mps 726 mmHg 68%
    07:00 +20°C° 0 mm 2 mps 727 mmHg 68%
    08:00 +23°C° 0 mm 2 mps 727 mmHg 64%
    09:00 +25°C° 0 mm 2 mps 727 mmHg 57%
    10:00 +26°C° 0 mm 2 mps 727 mmHg 55%
    11:00 +28°C° 0 mm 2 mps 727 mmHg 54%
    12:00 +29°C° 0 mm 2 mps 727 mmHg 52%
    13:00 +30°C° 0 mm 2 mps 727 mmHg 50%
    14:00 +31°C° 0 mm 3 mps 727 mmHg 48%
    15:00 +31°C° 0 mm 3 mps 726 mmHg 47%
    16:00 +31°C° 0 mm 3 mps 726 mmHg 47%
    17:00 +31°C° 0 mm 3 mps 726 mmHg 47%
    18:00 +29°C° 0 mm 4 mps 726 mmHg 59%
    19:00 +27°C° 0 mm 5 mps 726 mmHg 69%
    20:00 +26°C° 0 mm 5 mps 726 mmHg 76%
    21:00 +25°C° 0 mm 4 mps 726 mmHg 78%
    22:00 +24°C° 0 mm 3 mps 726 mmHg 78%
    23:00 +22°C° 0 mm 3 mps 727 mmHg 76%

    26 August, Monday

    Time Temperature Precipitation Wind Pressure Humidity
    00:00 +22°C° 0 mm 3 mps 727 mmHg 71%
    01:00 +22°C° 0 mm 3 mps 727 mmHg 64%
    02:00 +21°C° 0 mm 4 mps 727 mmHg 62%

    27 August, Tuesday

    Time Temperature Precipitation Wind Pressure Humidity
    Show more